Back to catalog

CZ-6A DEB

AliveSSO
NORAD 54549·DEBRIS·🇨🇳 China

Launched Nov 11, 2022 from Taiyuan Satellite Launch Center

Loading…

Next Passes (next 24 hours)

TLE

FreshSource: Space-Track

Epoch: Sep 14, 2026, 01:03 UTC

1 54549U 22151KZ  26257.04407800  .00001151  00000-0  32454-3 0  9992
2 54549  98.5507 291.0577 0108660  69.0609 292.2170 14.44280260201608

Track CZ-6A DEB in real time with AllMySat

Download on the App Store